Total_Precipitation_Accumulation
0.00 0.01 0.02 0.02 0.02 0.03 0.04 0.03 0.03 0.02 0.02 0.02 0.02 0.02 0.02 0.01 0.00 0.00 0.01 0.02 0.02 0.02 0.03 0.05 0.05 0.06 0.06 0.06 0.06 0.06 0.04 0.03 0.03 0.04 0.04 0.05 0.07 0.12 0.18 0.17 0.28 0.24 0.22
0.00 0.00 0.02 0.01 0.02 0.04 0.06 0.06 0.04 0.04 0.02 0.02 0.02 0.02 0.03 0.01 0.01 0.01 0.01 0.01 0.01 0.02 0.03 0.04 0.04 0.04 0.04 0.04 0.04 0.03 0.03 0.02 0.03 0.05 0.04 0.05 0.07 0.12 0.18 0.14 0.29 0.22 0.17
0.00 0.00 0.01 0.01 0.02 0.03 0.06 0.06 0.07 0.06 0.03 0.02 0.02 0.04 0.07 0.03 0.01 0.01 0.01 0.01 0.01 0.01 0.02 0.02 0.03 0.02 0.02 0.01 0.01 0.01 0.01 0.02 0.03 0.05 0.12 0.12 0.07 0.12 0.18 0.14 0.13 0.09 0.10
0.00 0.00 0.01 0.01 0.01 0.02 0.03 0.05 0.08 0.07 0.04 0.03 0.05 0.07 0.08 0.05 0.02 0.01 0.01 0.02 0.01 0.01 0.01 0.02 0.02 0.01 0.01 0.01 0.00 0.01 0.01 0.03 0.05 0.08 0.25 0.23 0.11 0.11 0.15 0.13 0.10 0.06 0.07
0.00 0.00 0.01 0.02 0.02 0.02 0.02 0.04 0.08 0.10 0.08 0.06 0.09 0.10 0.09 0.07 0.05 0.04 0.03 0.04 0.03 0.02 0.01 0.02 0.02 0.02 0.01 0.01 0.00 0.00 0.01 0.03 0.06 0.11 0.19 0.19 0.24 0.17 0.14 0.18 0.18 0.14 0.11
0.00 0.00 0.01 0.03 0.03 0.03 0.03 0.02 0.05 0.10 0.10 0.08 0.10 0.13 0.11 0.12 0.13 0.09 0.05 0.06 0.06 0.04 0.03 0.03 0.02 0.01 0.01 0.01 0.00 0.00 0.01 0.03 0.05 0.10 0.12 0.12 0.29 0.29 0.22 0.34 0.38 0.30 0.23
0.00 0.00 0.01 0.03 0.03 0.02 0.02 0.04 0.04 0.06 0.07 0.06 0.06 0.06 0.06 0.09 0.16 0.13 0.09 0.07 0.07 0.05 0.04 0.03 0.03 0.02 0.02 0.02 0.01 0.01 0.02 0.03 0.06 0.11 0.10 0.11 0.19 0.20 0.27 0.47 0.61 0.55 0.45
0.00 0.00 0.02 0.04 0.04 0.02 0.02 0.03 0.05 0.05 0.04 0.03 0.03 0.02 0.03 0.04 0.05 0.08 0.09 0.08 0.07 0.04 0.03 0.03 0.03 0.03 0.03 0.03 0.03 0.03 0.04 0.05 0.05 0.07 0.09 0.13 0.16 0.19 0.38 0.59 0.71 0.73 0.66
0.00 0.01 0.03 0.04 0.04 0.04 0.03 0.04 0.04 0.05 0.05 0.04 0.03 0.03 0.04 0.04 0.05 0.07 0.08 0.09 0.09 0.08 0.07 0.05 0.05 0.05 0.05 0.04 0.04 0.04 0.04 0.05 0.07 0.10 0.12 0.22 0.33 0.39 0.60 0.76 0.75 0.77 0.77
0.02 0.02 0.04 0.06 0.07 0.07 0.06 0.06 0.06 0.06 0.06 0.05 0.05 0.05 0.05 0.05 0.05 0.08 0.10 0.11 0.14 0.16 0.13 0.11 0.09 0.07 0.08 0.06 0.05 0.04 0.04 0.04 0.05 0.07 0.12 0.18 0.32 0.52 0.72 0.80 0.83 0.83 0.82
0.07 0.07 0.06 0.06 0.08 0.08 0.06 0.06 0.07 0.08 0.07 0.07 0.08 0.09 0.10 0.09 0.12 0.19 0.19 0.25 0.27 0.31 0.31 0.28 0.25 0.21 0.19 0.12 0.13 0.17 0.11 0.04 0.04 0.07 0.11 0.21 0.34 0.59 0.82 0.86 0.87 0.92 0.92
0.17 0.12 0.10 0.07 0.08 0.08 0.07 0.10 0.13 0.13 0.15 0.14 0.17 0.25 0.30 0.34 0.30 0.20 0.29 0.45 0.61 0.79 0.76 0.68 0.68 0.54 0.42 0.33 0.63 0.87 0.25 0.11 0.11 0.12 0.15 0.21 0.42 0.79 1.03 0.95 0.87 0.89 0.86
0.24 0.18 0.14 0.12 0.13 0.14 0.16 0.20 0.25 0.24 0.28 0.28 0.30 0.40 0.45 0.46 0.39 0.30 0.36 0.54 0.73 0.96 0.93 1.12 1.23 0.98 0.92 0.88 0.99 1.00 0.45 0.35 0.29 0.25 0.28 0.35 0.54 0.89 1.18 1.06 0.91 0.85 0.79
0.40 0.32 0.22 0.21 0.23 0.24 0.27 0.30 0.31 0.35 0.38 0.40 0.47 0.51 0.64 0.72 0.64 0.60 0.69 0.77 0.89 1.04 1.29 1.29 1.44 1.39 1.27 1.17 1.13 1.01 0.78 0.68 0.58 0.59 0.71 0.61 0.62 0.89 1.21 1.12 0.97 0.90 0.86
0.53 0.53 0.48 0.42 0.42 0.43 0.46 0.51 0.54 0.54 0.57 0.63 0.73 0.81 0.90 1.02 1.01 1.06 1.03 1.07 1.04 1.25 1.50 1.58 1.54 1.70 1.72 1.58 1.37 1.19 1.09 0.96 0.81 0.85 0.95 0.89 0.79 0.88 1.10 1.17 1.09 1.04 0.98
0.75 0.79 0.82 0.79 0.82 0.86 0.89 0.95 0.97 0.93 1.01 1.08 1.11 1.10 1.21 1.30 1.50 1.57 1.45 1.39 1.30 1.36 1.54 1.69 1.74 2.13 2.02 1.94 1.58 1.39 1.30 1.21 1.06 0.97 1.00 1.08 0.92 0.81 0.88 1.07 1.20 1.15 1.10
0.99 1.00 1.10 1.19 1.34 1.47 1.44 1.38 1.38 1.39 1.39 1.42 1.46 1.53 1.58 1.58 1.77 1.83 1.80 1.67 1.67 1.65 1.74 1.74 1.92 2.19 1.96 1.87 1.60 1.51 1.39 1.26 1.13 1.12 1.17 1.21 1.09 0.92 0.76 0.83 1.02 1.12 1.18
1.15 1.25 1.46 1.57 1.71 1.83 1.81 1.76 1.79 1.71 1.60 1.52 1.57 1.68 1.70 1.74 1.96 2.04 1.84 1.73 1.98 2.02 2.03 2.06 2.12 2.15 2.05 2.00 1.79 1.50 1.34 1.28 1.01 1.02 1.03 0.97 0.99 0.84 0.82 0.91 0.99 1.05 1.18
1.65 1.88 2.04 2.08 2.09 2.08 2.12 2.17 2.22 2.14 1.92 1.75 1.75 1.79 1.84 1.79 1.87 2.00 1.81 1.86 2.10 2.17 2.14 1.97 2.24 2.21 2.14 2.03 1.70 1.42 1.19 1.03 0.90 0.80 0.77 0.67 0.71 0.68 0.68 0.79 0.86 0.88 1.09
1.95 2.23 2.32 2.32 2.55 2.68 2.67 2.52 2.50 2.31 2.08 2.02 2.02 2.04 1.97 1.88 1.91 2.05 1.91 1.99 2.15 2.22 2.14 2.15 2.25 2.28 2.13 2.06 1.64 1.31 1.10 0.85 0.77 0.70 0.59 0.60 0.58 0.51 0.49 0.61 0.76 0.68 0.90
2.15 2.39 2.62 3.08 3.26 3.16 2.93 2.62 2.45 2.35 2.30 2.19 2.04 1.88 1.85 1.87 1.97 2.14 2.03 2.15 2.17 2.02 2.01 2.17 2.29 2.14 1.93 2.08 1.83 1.25 0.89 0.71 0.68 0.63 0.59 0.64 0.60 0.54 0.53 0.65 0.73 0.71 0.69
2.22 2.51 2.56 2.52 2.65 2.70 2.63 2.55 2.52 2.57 2.34 2.13 2.01 1.83 1.70 1.74 1.83 1.87 1.90 1.89 1.93 1.97 1.96 2.02 2.18 1.99 1.68 1.87 1.82 1.53 0.98 0.76 0.64 0.54 0.58 0.58 0.54 0.60 0.62 0.68 0.82 0.89 0.81
1.60 1.80 1.91 1.95 1.88 1.87 1.94 2.09 2.17 2.23 2.04 1.88 1.81 1.75 1.62 1.58 1.53 1.55 1.58 1.71 1.93 2.02 1.95 1.98 2.01 1.88 1.58 1.60 1.75 1.79 1.30 0.92 0.69 0.44 0.45 0.51 0.61 0.72 0.72 0.85 0.91 0.94 0.97
1.33 1.43 1.45 1.48 1.49 1.53 1.63 1.73 1.74 1.73 1.64 1.61 1.62 1.54 1.48 1.43 1.40 1.37 1.39 1.44 1.51 1.60 1.62 1.56 1.68 1.78 1.72 1.54 1.65 1.69 1.54 1.36 1.16 0.73 0.54 0.54 0.67 0.73 0.81 0.81 0.78 0.80 1.00
0.98 1.09 1.19 1.27 1.27 1.28 1.32 1.37 1.41 1.39 1.40 1.42 1.36 1.30 1.24 1.21 1.27 1.26 1.21 1.20 1.17 1.23 1.35 1.38 1.48 1.53 1.57 1.54 1.57 1.64 1.60 1.56 1.51 1.30 0.91 0.86 0.84 0.71 0.75 0.79 0.77 0.80 0.98
0.89 0.99 1.06 1.12 1.14 1.15 1.16 1.18 1.19 1.19 1.20 1.19 1.15 1.16 1.13 1.09 1.03 1.01 1.05 1.06 1.05 1.10 1.19 1.27 1.34 1.30 1.38 1.44 1.47 1.56 1.61 1.59 1.61 1.61 1.28 1.12 1.03 0.86 0.86 0.81 0.78 0.81 0.97